JUGNU

Last updated on Fri Dec 05 2025 00:03:10 GMT+0000 (Coordinated Universal Time)

1 37839U 11058B 25338.55620500 .00000671 00000+0 21091-3 0 9998 2 37839 19.9613 50.8080 0018794 86.7853 301.9912 14.13691481731451
UTC large
Height (km)
Speed (km/s)
/
Latitude / Longitude
Inclination (degrees)
Orbital Period (minutes)
Azimuth
Elevation
Range (km)
Doppler Factor

Next 0 passes for location: London (51.5072 / 0.1276)

Sorry there are no passes over London.